{"data":{"norad_id":60739,"intl_designator":"2024-152V","name":"STARLINK-32235","alt_names":[],"object_type":"PAYLOAD","status":"ACTIVE","operator":null,"country":"US","launch_date":"2024-08-28","launch_site_code":"AFETR","launch_vehicle":null,"mission":null,"orbit_class":"UNKNOWN","rcs_meters":null,"size_class":null,"mass_kg":null,"dimensions":null,"purposes":["comms"],"wikipedia_slug":null,"has_3d_model":false,"image_url":null,"decayed_at":null,"tle_current":{"epoch":"2026-09-21T17:44:15.120096Z","epoch_age_seconds":81441,"freshness":"FRESH","line1":"1 60739U 24152V   26264.73906389 -.00000294  00000+0  24369-5 0  9998","line2":"2 60739  53.1590  75.9003 0001171  99.5759 260.5376 15.34386401116842","mean_motion":15.34386401,"eccentricity":0.0001171,"inclination_deg":53.159,"raan_deg":75.9003,"arg_perigee_deg":99.5759,"mean_anomaly_deg":260.5376,"bstar":2.4369e-6,"rev_number":11684,"period_min":93.848589837704,"perigee_km":461.94259247425,"apogee_km":463.54472672473,"semimajor_km":6840.8806595995,"source":"CELESTRAK","updated_at":"2026-09-22T09:00:49.281451Z"}}}